Date String (YYYY-MM-DD hh:mm:ss) UTC,Instrument flags,absolute air pressure of the measurement (hPa),sample flow rate (lpm),inlet stack bypass flow (lpm),air temperature of the measurement (°C),ambient temperature measured by the external sensor (°C),aerosol sample conditioner tube jacket temperature (°C),OPC LED temperature (°C),internal box temperature (°C),relative humidity of the measurement (%),span deviation,mass concentration of particles derived from Lorenz-Mie calculation of OPC scattering (μg/m³),mass concentration of particles derived from Lorenz-Mie calculation of OPC scattering (μg/m³),mass concentration of particles derived from Lorenz-Mie calculation of OPC scattering (μg/m³)
DateTimeUTC,F1_M11,P_M11,Q1_M11,Q2_M11,T1_M11,T2_M11,T3_M11,T4_M11,T5_M11,U1_M11,ZSPAN_M11,X0_M11,X2_M11,X1_M11
2023-06-13 14:00:00,SystemResetWarning,0830.4,5.00,000.00,029.6,027.8,000.0,038.2,030.9,29.0,0000.1,0011.92,0008.54,0008.02
2023-06-13 14:01:00,SystemResetWarning,0830.4,5.00,000.00,029.5,027.8,000.0,038.2,030.9,29.0,0000.2,0011.67,0008.34,0007.82
2023-06-13 14:02:00,SystemResetWarning,0830.4,4.99,000.00,029.5,027.8,000.0,038.2,030.9,29.0,0000.2,0011.53,0008.23,0007.68
2023-06-13 14:03:00,SystemResetWarning,0830.4,5.00,000.00,029.5,027.7,000.0,038.1,030.9,29.0,0000.0,0011.55,0008.11,0007.56
2023-06-13 14:04:00,SystemResetWarning,0830.4,5.00,000.00,029.5,027.7,000.0,038.1,030.8,28.9,0000.3,0011.62,0008.05,0007.47
2023-06-13 14:05:00,SystemResetWarning,0830.4,5.00,000.00,029.5,027.7,000.0,038.1,030.8,28.9,0000.3,0011.61,0007.98,0007.38
2023-06-13 14:06:00,SystemResetWarning,0830.4,4.99,000.00,029.5,027.7,000.0,038.1,030.8,29.0,0001.0,0011.65,0007.91,0007.30
2023-06-13 14:07:00,SystemResetWarning,0830.4,5.00,000.00,029.4,027.6,000.0,038.1,030.7,28.9,0001.5,0011.69,0007.89,0007.29
2023-06-13 14:08:00,SystemResetWarning,0830.4,5.01,000.00,029.4,027.6,000.0,038.1,030.7,28.9,0001.8,0012.15,0007.93,0007.36
2023-06-13 14:09:00,SystemResetWarning,0830.4,5.01,000.00,029.4,027.6,000.0,038.1,030.8,28.9,0002.1,0012.13,0007.97,0007.42
2023-06-13 14:10:00,SystemResetWarning,0830.4,5.00,000.00,029.4,027.6,000.0,038.1,030.7,28.9,0002.3,0012.19,0008.01,0007.48
2023-06-13 14:11:00,SystemResetWarning,0830.3,5.00,000.00,029.4,027.6,000.0,038.0,030.7,29.1,0002.4,0012.37,0008.09,0007.56
2023-06-13 14:12:00,SystemResetWarning,0830.4,5.00,000.00,029.3,027.6,000.0,038.0,030.7,29.1,0002.4,0012.39,0008.18,0007.67
2023-06-13 14:13:00,SystemResetWarning,0830.4,5.00,000.00,029.3,027.6,000.0,038.0,030.7,29.1,0002.3,0012.51,0008.28,0007.77
2023-06-13 14:14:00,SystemResetWarning,0830.4,4.99,000.00,029.3,027.5,000.0,038.0,030.6,29.1,0002.3,0012.61,0008.38,0007.84
2023-06-13 14:15:00,SystemResetWarning,0830.4,5.00,000.00,029.3,027.5,000.0,038.0,030.6,29.1,0002.3,0012.62,0008.41,0007.88
2023-06-13 14:16:00,SystemResetWarning,0830.4,5.01,000.00,029.3,027.5,000.0,038.0,030.6,29.1,0002.4,0012.42,0008.39,0007.90
2023-06-13 14:17:00,SystemResetWarning,0830.4,5.00,000.00,029.3,027.5,000.0,038.0,030.6,29.0,0002.1,0012.28,0008.39,0007.91
2023-06-13 14:18:00,SystemResetWarning,0830.4,4.99,000.00,029.2,027.5,000.0,038.0,030.6,29.2,0001.9,0012.53,0008.45,0007.92
2023-06-13 14:19:00,SystemResetWarning,0830.4,4.99,000.00,029.2,027.4,000.0,037.9,030.6,29.2,0001.7,0011.97,0008.40,0007.87
2023-06-13 14:20:00,SystemResetWarning,0830.4,5.01,000.00,029.2,027.4,000.0,037.9,030.5,28.7,0001.7,0011.82,0008.29,0007.75
2023-06-13 14:21:00,SystemResetWarning,0830.4,5.01,000.00,029.2,027.4,000.0,037.9,030.5,28.6,0001.6,0011.68,0008.17,0007.63
2023-06-13 14:22:00,SystemResetWarning,0830.4,5.00,000.00,029.2,027.4,000.0,037.9,030.5,28.8,0001.5,0011.38,0008.05,0007.53
2023-06-13 14:23:00,SystemResetWarning,0830.4,5.00,000.00,029.2,027.4,000.0,037.9,030.5,28.8,0001.5,0011.27,0007.95,0007.42
2023-06-13 14:24:00,SystemResetWarning,0830.4,5.00,000.00,029.2,027.5,000.0,037.9,030.5,28.9,0001.5,0011.23,0007.81,0007.31
2023-06-13 14:25:00,SystemResetWarning,0830.4,4.99,000.00,029.2,027.4,000.0,037.9,030.5,29.1,0001.5,0011.83,0007.71,0007.24
2023-06-13 14:26:00,SystemResetWarning,0830.5,5.00,000.00,029.2,027.4,000.0,037.8,030.5,29.0,0001.2,0011.76,0007.68,0007.21
2023-06-13 14:27:00,SystemResetWarning,0830.4,4.99,000.00,029.2,027.4,000.0,037.8,030.5,29.0,0001.5,0011.76,0007.64,0007.15
2023-06-13 14:28:00,SystemResetWarning,0830.4,5.01,000.00,029.1,027.4,000.0,037.8,030.5,28.9,0001.7,0011.79,0007.60,0007.11
2023-06-13 14:29:00,SystemResetWarning,0830.5,5.01,000.00,029.1,027.4,000.0,037.8,030.5,29.1,0001.6,0011.52,0007.53,0007.09
2023-06-13 14:30:00,SystemResetWarning,0830.4,5.00,000.00,029.1,027.4,000.0,037.8,030.5,29.0,0001.5,0011.50,0007.51,0007.08
2023-06-13 14:31:00,SystemResetWarning,0830.7,5.00,000.00,029.1,027.4,000.0,037.8,030.5,29.0,0001.8,0011.64,0007.59,0007.15
2023-06-13 14:32:00,SystemResetWarning,0830.5,4.99,000.00,029.1,027.4,000.0,037.8,030.5,29.1,0002.0,0011.88,0007.72,0007.25
2023-06-13 14:33:00,SystemResetWarning,0830.5,5.00,000.00,029.1,027.4,000.0,037.8,030.5,29.2,0002.0,0012.09,0007.84,0007.32
2023-06-13 14:34:00,SystemResetWarning,0830.5,5.00,000.00,029.1,027.5,000.0,037.8,030.5,29.1,0002.1,0012.34,0007.96,0007.40
2023-06-13 14:35:00,SystemResetWarning,0830.5,5.00,000.00,029.1,027.4,000.0,037.8,030.5,29.2,0002.0,0012.53,0008.08,0007.47
2023-06-13 14:36:00,SystemResetWarning,0830.5,5.00,000.00,029.1,027.4,000.0,037.7,030.5,29.1,0001.9,0013.39,0008.21,0007.53
2023-06-13 14:37:00,SystemResetWarning,0830.4,5.00,000.00,029.1,027.4,000.0,037.7,030.5,29.0,0001.8,0014.32,0008.30,0007.57
2023-06-13 14:38:00,SystemResetWarning,0830.4,5.00,000.00,029.1,027.4,000.0,037.7,030.5,29.0,0001.8,0014.51,0008.40,0007.63
2023-06-13 14:39:00,SystemResetWarning,0830.6,5.00,000.00,029.1,027.4,000.0,037.7,030.5,29.0,0001.8,0014.76,0008.54,0007.69
2023-06-13 14:40:00,SystemResetWarning,0830.8,5.00,000.00,029.1,027.4,000.0,037.7,030.5,29.1,0001.7,0015.21,0008.71,0007.77
2023-06-13 14:41:00,SystemResetWarning,0830.5,5.01,000.00,029.1,027.4,000.0,037.7,030.5,29.2,0001.7,0015.74,0008.88,0007.87
2023-06-13 14:42:00,SystemResetWarning,0830.4,5.00,000.00,029.1,027.4,000.0,037.7,030.4,29.1,0001.5,0016.21,0009.01,0007.97
2023-06-13 14:43:00,SystemResetWarning,0830.5,5.00,000.00,029.0,027.4,000.0,037.7,030.4,29.2,0001.6,0016.76,0009.08,0008.03
2023-06-13 14:44:00,SystemResetWarning,0830.5,5.00,000.00,029.0,027.4,000.0,037.7,030.4,29.4,0001.5,0017.49,0009.12,0008.06
2023-06-13 14:45:00,SystemResetWarning,0830.5,5.00,000.00,029.0,027.4,000.0,037.7,030.5,29.6,0001.3,0019.67,0009.21,0008.12
2023-06-13 14:46:00,SystemResetWarning,0830.4,5.00,000.00,029.1,027.4,000.0,037.7,030.5,29.8,0001.4,0019.94,0009.25,0008.14
2023-06-13 14:47:00,SystemResetWarning,0830.4,4.99,000.00,029.1,027.4,000.0,037.7,030.5,29.7,0001.4,0019.22,0009.20,0008.15
2023-06-13 14:48:00,SystemResetWarning,0830.4,5.00,000.00,029.1,027.4,000.0,037.7,030.5,29.7,0001.6,0018.42,0009.14,0008.17
2023-06-13 14:49:00,SystemResetWarning,0830.4,5.00,000.00,029.1,027.4,000.0,037.7,030.5,30.1,0001.3,0018.42,0009.13,0008.19
2023-06-13 14:50:00,SystemResetWarning,0830.4,5.00,000.00,029.1,027.5,000.0,037.7,030.5,29.9,0000.9,0018.31,0009.12,0008.23
2023-06-13 14:51:00,SystemResetWarning,0830.4,5.01,000.00,029.1,027.5,000.0,037.7,030.6,29.8,0000.9,0018.25,0009.10,0008.26
2023-06-13 14:52:00,SystemResetWarning,0830.4,5.00,000.00,029.1,027.5,000.0,037.7,030.6,29.8,0000.9,0018.77,0009.07,0008.26
2023-06-13 14:53:00,SystemResetWarning,0830.4,4.99,000.00,029.1,027.5,000.0,037.7,030.6,29.6,0000.8,0018.42,0009.05,0008.26
2023-06-13 14:54:00,SystemResetWarning,0830.4,4.99,000.00,029.1,027.5,000.0,037.7,030.6,29.8,0000.8,0018.13,0009.06,0008.31
2023-06-13 14:55:00,SystemResetWarning,0830.4,5.00,000.00,029.1,027.5,000.0,037.7,030.6,29.7,0000.8,0017.63,0009.08,0008.34
2023-06-13 14:56:00,SystemResetWarning,0830.4,5.01,000.00,029.1,027.5,000.0,037.7,030.6,29.4,0001.3,0015.51,0009.04,0008.34
2023-06-13 14:57:00,SystemResetWarning,0830.4,5.01,000.00,029.1,027.5,000.0,037.7,030.6,29.2,0001.2,0014.74,0008.98,0008.33
2023-06-13 14:58:00,SystemResetWarning,0830.4,4.99,000.00,029.1,027.5,000.0,037.7,030.6,29.2,0001.3,0014.01,0008.94,0008.33
2023-06-13 14:59:00,SystemResetWarning,0830.4,4.99,000.00,029.1,027.5,000.0,037.7,030.6,29.3,0001.2,0013.63,0008.97,0008.35
